SCOUT G-1 DEB

Satellite information

Favourite Embed

Satellite Type and Status

DEBRISIN ORBIT

Key statistics

Satellite SCOUT G-1 DEB at a glance.

Uptime

14743

Days in orbit

Revolutions

≈ 13.4

Per day

Orbit

SSO

Sun Synchronous Orbit

Inclination

90.2

Latest

Satellite identification and parameters

Extended collection of information and parameters for SCOUT G-1 DEB.

Object identification

Identified? True

Debris? True

Object name: SCOUT G-1 DEB

International designator: 1985-066F

Object number (NORAD): 16020

Object ID (CCSDS): 16020

Country: UNITED STATES OF AMERICA (US)

Current information (Y/N): Y

RCS size: SMALL

Orbital parameters

Period: 107.383 minutes

Inclination: 90.2137 deg

SMA: 7483.717 km

Apoapsis: 1211.503 km

Periapsis: 999.661 km

RAAN: 7.6504 deg

Eccentricy: 0.01415351

Argument of periapsis: 113.8679 deg

Mean anomaly: 302.6093 deg

Mean motion: 13.40993586 rev/day

Mean motion (dot): 0.00000225 rev/day2

B* drag term: 0.00036682276 1/REarth

Two-line elements (TLE)

Creation date: Dec. 13, 2025, 5:47 p.m.

Reference frame: TEME

Reference center: EARTH

Epoch: Dec. 13, 2025, 1:32 a.m. UTC

TLE line 0: 0 SCOUT G-1 DEB

TLE line 1: 1 16020U 85066F 25347.06438979 .00000225 00000-0 36682-3 0 9998

TLE line 2: 2 16020 90.2137 7.6504 0141535 113.8679 302.6093 13.40993586970972

Live tracking on map

Real-time ground track for satellite SCOUT G-1 DEB.

In-orbit conjunctions

A list of the most updated potential collisions computed for object SCOUT G-1 DEB.

Target Orbit TCA Probability of collision Miss distance Type
COSMOS 2251 DEB LEO 2025-10-09 04:48:47 0.0001231443 300.0 (m) DEBRIS
SL-16 DEB LEO 2025-03-15 15:30:39 0.0004078212 103.0 (m) DEBRIS
FENGYUN 1C DEB SSO 2024-12-12 15:49:24 0.000175227 55.0 (m) DEBRIS
CZ-4C DEB LEO 2024-10-29 05:06:44 0.0002666668 125.0 (m) DEBRIS

Associated space launch

The Transit-O series of satellites that closely followed the design of Transit 5C-1 were also called “Oscars” (Oscar is the phonetic alphabet for “O”, i. e., operational). They were also called NNS (Navy Navigation Satellite) or shortened NavSat.

SCOUT G-1 DEB was lifted into orbit during the mission ‘Scout G-1 | Transit-O 24,30’, on board a Scout G-1 space rocket.

The launch took place on Aug. 3, 1985, 3:31 a.m. from Space Launch Complex 5.

For more information about the launch, click the button.

Launch to space Scout G-1 | Transit-O 24,30
Scout G-1 | Transit-O 24,30

Agency: N/A

Status: Launch Successful

Launch date: Aug. 3, 1985, 3:31 a.m. UTC

Rocket: Scout G-1

Launch pad: Space Launch Complex 5

Location: Vandenberg SFB, CA, USA

...

Latest news about this satellite

There are no fresh news available about this satellite. Check back as we update our databases every day.


Newsletter sign-up

Weekly statistics, charts and insights to help you stay on top of the space industry.